Year,Month,Day,Hour,Minute,Value (Times are PST for windspeed in km/hr)
2014,11,05,00,00,1.50
2014,11,05,00,01,1.30
2014,11,05,00,02,0.80
2014,11,05,00,03,0.60
2014,11,05,00,04,0.90
2014,11,05,00,05,1.30
2014,11,05,00,06,3.10
2014,11,05,00,07,2.60
2014,11,05,00,08,1.20
2014,11,05,00,09,1.50
2014,11,05,00,10,1.50
2014,11,05,00,11,1.10
2014,11,05,00,12,1.00
2014,11,05,00,13,1.10
2014,11,05,00,14,0.40
2014,11,05,00,15,0.00
2014,11,05,00,16,0.00
2014,11,05,00,17,0.10
2014,11,05,00,18,0.40
2014,11,05,00,19,0.60
2014,11,05,00,20,0.70
2014,11,05,00,21,0.50
2014,11,05,00,22,0.50
2014,11,05,00,23,0.50
2014,11,05,00,24,0.80
2014,11,05,00,25,0.40
2014,11,05,00,26,0.10
2014,11,05,00,27,0.10
2014,11,05,00,28,0.00
2014,11,05,00,29,0.20
2014,11,05,00,30,0.00
2014,11,05,00,31,0.00
2014,11,05,00,32,0.00
2014,11,05,00,33,0.00
2014,11,05,00,34,0.00
2014,11,05,00,35,0.50
2014,11,05,00,36,1.10
2014,11,05,00,37,0.70
2014,11,05,00,38,1.50
2014,11,05,00,39,1.80
2014,11,05,00,40,1.80
2014,11,05,00,41,2.00
2014,11,05,00,42,2.30
2014,11,05,00,43,2.90
2014,11,05,00,44,3.90
2014,11,05,00,45,4.30
2014,11,05,00,46,4.20
2014,11,05,00,47,3.70
2014,11,05,00,48,2.60
2014,11,05,00,49,1.90
2014,11,05,00,50,1.90
2014,11,05,00,51,2.20
2014,11,05,00,52,2.80
2014,11,05,00,53,3.10
2014,11,05,00,54,2.70
2014,11,05,00,55,2.80
2014,11,05,00,56,3.30
2014,11,05,00,57,2.80
2014,11,05,00,58,1.70
2014,11,05,00,59,1.80
2014,11,05,01,00,2.00
2014,11,05,01,01,2.30
2014,11,05,01,02,3.10
2014,11,05,01,03,3.00
2014,11,05,01,04,3.40
2014,11,05,01,05,2.80
2014,11,05,01,06,2.80
2014,11,05,01,07,2.10
2014,11,05,01,08,3.00
2014,11,05,01,09,2.90
2014,11,05,01,10,2.30
2014,11,05,01,11,3.10
2014,11,05,01,12,2.80
2014,11,05,01,13,3.10
2014,11,05,01,14,2.60
2014,11,05,01,15,2.00
2014,11,05,01,16,2.50
2014,11,05,01,17,2.30
2014,11,05,01,18,2.90
2014,11,05,01,19,2.10
2014,11,05,01,20,2.60
2014,11,05,01,21,1.50
2014,11,05,01,22,0.80
2014,11,05,01,23,0.00
2014,11,05,01,24,0.00
2014,11,05,01,25,0.40
2014,11,05,01,26,1.00
2014,11,05,01,27,1.00
2014,11,05,01,28,1.80
2014,11,05,01,29,2.40
2014,11,05,01,30,1.50
2014,11,05,01,31,0.70
2014,11,05,01,32,0.30
2014,11,05,01,33,0.50
2014,11,05,01,34,0.10
2014,11,05,01,35,0.40
2014,11,05,01,36,1.30
2014,11,05,01,37,1.40
2014,11,05,01,38,1.80
2014,11,05,01,39,1.90
2014,11,05,01,40,1.00
2014,11,05,01,41,0.50
2014,11,05,01,42,0.00
2014,11,05,01,43,0.40
2014,11,05,01,44,1.00
2014,11,05,01,45,2.10
2014,11,05,01,46,1.60
2014,11,05,01,47,1.60
2014,11,05,01,48,1.40
2014,11,05,01,49,1.30
2014,11,05,01,50,1.20
2014,11,05,01,51,0.10
2014,11,05,01,52,0.00
2014,11,05,01,53,0.10
2014,11,05,01,54,0.80
2014,11,05,01,55,0.80
2014,11,05,01,56,0.70
2014,11,05,01,57,1.50
2014,11,05,01,58,1.50
2014,11,05,01,59,1.60
2014,11,05,02,00,1.50
2014,11,05,02,01,2.60
2014,11,05,02,02,3.10
2014,11,05,02,03,2.80
2014,11,05,02,04,1.00
2014,11,05,02,05,1.00
2014,11,05,02,06,1.70
2014,11,05,02,07,2.10
2014,11,05,02,08,2.00
2014,11,05,02,09,1.60
2014,11,05,02,10,1.50
2014,11,05,02,11,1.30
2014,11,05,02,12,1.80
2014,11,05,02,13,1.50
2014,11,05,02,14,0.50
2014,11,05,02,15,0.10
2014,11,05,02,16,0.90
2014,11,05,02,17,1.10
2014,11,05,02,18,0.40
2014,11,05,02,19,0.60
2014,11,05,02,20,0.30
2014,11,05,02,21,0.00
2014,11,05,02,22,0.00
2014,11,05,02,23,0.00
2014,11,05,02,24,0.00
2014,11,05,02,25,0.10
2014,11,05,02,26,0.40
2014,11,05,02,27,1.30
2014,11,05,02,28,0.70
2014,11,05,02,29,1.00
2014,11,05,02,30,1.00
2014,11,05,02,31,1.50
2014,11,05,02,32,2.10
2014,11,05,02,33,2.20
2014,11,05,02,34,2.10
2014,11,05,02,35,3.00
2014,11,05,02,36,2.60
2014,11,05,02,37,1.80
2014,11,05,02,38,2.20
2014,11,05,02,39,2.40
2014,11,05,02,40,2.80
2014,11,05,02,41,2.40
2014,11,05,02,42,2.30
2014,11,05,02,43,1.70
2014,11,05,02,44,1.80
2014,11,05,02,45,1.50
2014,11,05,02,46,1.90
2014,11,05,02,47,2.20
2014,11,05,02,48,2.60
2014,11,05,02,49,2.30
2014,11,05,02,50,2.40
2014,11,05,02,51,2.60
2014,11,05,02,52,2.90
2014,11,05,02,53,2.60
2014,11,05,02,54,3.20
2014,11,05,02,55,3.10
2014,11,05,02,56,2.80
2014,11,05,02,57,4.00
2014,11,05,02,58,4.40
2014,11,05,02,59,4.50
2014,11,05,03,00,3.60
2014,11,05,03,01,3.50
2014,11,05,03,02,2.60
2014,11,05,03,03,1.70
2014,11,05,03,04,2.20
2014,11,05,03,05,2.30
2014,11,05,03,06,2.30
2014,11,05,03,07,2.60
2014,11,05,03,08,3.10
2014,11,05,03,09,2.80
2014,11,05,03,10,3.50
2014,11,05,03,11,4.10
2014,11,05,03,12,5.00
2014,11,05,03,13,5.90
2014,11,05,03,14,3.90
2014,11,05,03,15,2.40
2014,11,05,03,16,1.50
2014,11,05,03,17,0.90
2014,11,05,03,18,1.10
2014,11,05,03,19,0.70
2014,11,05,03,20,1.60
2014,11,05,03,21,2.60
2014,11,05,03,22,2.20
2014,11,05,03,23,2.30
2014,11,05,03,24,3.10
2014,11,05,03,25,7.00
2014,11,05,03,26,5.20
2014,11,05,03,27,5.30
2014,11,05,03,28,2.40
2014,11,05,03,29,2.50
2014,11,05,03,30,0.50
2014,11,05,03,31,0.40
2014,11,05,03,32,0.70
2014,11,05,03,33,2.10
2014,11,05,03,34,2.20
2014,11,05,03,35,2.30
2014,11,05,03,36,3.00
2014,11,05,03,37,2.70
2014,11,05,03,38,2.10
2014,11,05,03,39,0.50
2014,11,05,03,40,1.80
2014,11,05,03,41,2.30
2014,11,05,03,42,2.40
2014,11,05,03,43,1.90
2014,11,05,03,44,2.70
2014,11,05,03,45,3.30
2014,11,05,03,46,2.80
2014,11,05,03,47,2.60
2014,11,05,03,48,2.10
2014,11,05,03,49,1.00
2014,11,05,03,50,0.70
2014,11,05,03,51,0.20
2014,11,05,03,52,0.40
2014,11,05,03,53,1.10
2014,11,05,03,54,0.30
2014,11,05,03,55,0.70
2014,11,05,03,56,1.70
2014,11,05,03,57,2.80
2014,11,05,03,58,3.10
2014,11,05,03,59,1.70
2014,11,05,04,00,0.70
2014,11,05,04,01,0.60
2014,11,05,04,02,0.00
2014,11,05,04,03,0.00
2014,11,05,04,04,0.00
2014,11,05,04,05,0.00
2014,11,05,04,06,0.50
2014,11,05,04,07,1.80
2014,11,05,04,08,3.00
2014,11,05,04,09,3.90
2014,11,05,04,10,4.20
2014,11,05,04,11,4.30
2014,11,05,04,12,3.10
2014,11,05,04,13,2.30
2014,11,05,04,14,2.10
2014,11,05,04,15,2.60
2014,11,05,04,16,2.50
2014,11,05,04,17,3.60
2014,11,05,04,18,3.90
2014,11,05,04,19,3.80
2014,11,05,04,20,6.00
2014,11,05,04,21,6.40
2014,11,05,04,22,6.70
2014,11,05,04,23,7.30
2014,11,05,04,24,7.20
2014,11,05,04,25,8.90
2014,11,05,04,26,9.30
2014,11,05,04,27,9.30
2014,11,05,04,28,9.20
2014,11,05,04,29,7.40
2014,11,05,04,30,5.40
2014,11,05,04,31,5.30
2014,11,05,04,32,4.80
2014,11,05,04,33,4.90
2014,11,05,04,34,3.40
2014,11,05,04,35,3.50
2014,11,05,04,36,2.90
2014,11,05,04,37,3.10
2014,11,05,04,38,2.80
2014,11,05,04,39,3.30
2014,11,05,04,40,2.80
2014,11,05,04,41,2.60
2014,11,05,04,42,3.40
2014,11,05,04,43,2.40
2014,11,05,04,44,2.30
2014,11,05,04,45,1.90
2014,11,05,04,46,1.50
2014,11,05,04,47,1.70
2014,11,05,04,48,1.50
2014,11,05,04,49,2.10
2014,11,05,04,50,2.70
2014,11,05,04,51,3.10
2014,11,05,04,52,3.20
2014,11,05,04,53,2.80
2014,11,05,04,54,2.40
2014,11,05,04,55,2.80
2014,11,05,04,56,1.80
2014,11,05,04,57,1.70
2014,11,05,04,58,2.50
2014,11,05,04,59,3.10
2014,11,05,05,00,3.50
2014,11,05,05,01,3.90
2014,11,05,05,02,4.30
2014,11,05,05,03,3.90
2014,11,05,05,04,3.00
2014,11,05,05,05,3.60
2014,11,05,05,06,3.40
2014,11,05,05,07,2.10
2014,11,05,05,08,2.20
2014,11,05,05,09,3.00
2014,11,05,05,10,3.30
2014,11,05,05,11,2.50
2014,11,05,05,12,2.80
2014,11,05,05,13,2.60
2014,11,05,05,14,3.00
2014,11,05,05,15,3.20
2014,11,05,05,16,3.40
2014,11,05,05,17,2.70
2014,11,05,05,18,2.50
2014,11,05,05,19,2.10
2014,11,05,05,20,2.10
2014,11,05,05,21,2.30
2014,11,05,05,22,2.80
2014,11,05,05,23,2.90
2014,11,05,05,24,3.20
2014,11,05,05,25,3.00
2014,11,05,05,26,3.00
2014,11,05,05,27,3.10
2014,11,05,05,28,2.90
2014,11,05,05,29,3.40
2014,11,05,05,30,2.80
2014,11,05,05,31,2.70
2014,11,05,05,32,3.10
2014,11,05,05,33,3.00
2014,11,05,05,34,3.50
2014,11,05,05,35,2.90
2014,11,05,05,36,2.50
2014,11,05,05,37,3.30
2014,11,05,05,38,3.20
2014,11,05,05,39,2.70
2014,11,05,05,40,2.40
2014,11,05,05,41,1.60
2014,11,05,05,42,3.10
2014,11,05,05,43,3.20
2014,11,05,05,44,2.20
2014,11,05,05,45,2.50
2014,11,05,05,46,2.90
2014,11,05,05,47,3.20
2014,11,05,05,48,3.80
2014,11,05,05,49,3.70
2014,11,05,05,50,2.80
2014,11,05,05,51,2.90
2014,11,05,05,52,2.90
2014,11,05,05,53,3.30
2014,11,05,05,54,4.10
2014,11,05,05,55,4.60
2014,11,05,05,56,4.80
2014,11,05,05,57,3.90
2014,11,05,05,58,5.00
2014,11,05,05,59,4.20
2014,11,05,06,00,4.50
2014,11,05,06,01,3.90
2014,11,05,06,02,3.10
2014,11,05,06,03,3.20
2014,11,05,06,04,3.80
2014,11,05,06,05,3.10
2014,11,05,06,06,3.90
2014,11,05,06,07,4.20
2014,11,05,06,08,3.40
2014,11,05,06,09,3.30
2014,11,05,06,10,3.50
2014,11,05,06,11,4.60
2014,11,05,06,12,4.20
2014,11,05,06,13,4.10
2014,11,05,06,14,3.20
2014,11,05,06,15,3.00
2014,11,05,06,16,3.40
2014,11,05,06,17,3.60
2014,11,05,06,18,3.10
2014,11,05,06,19,3.60
2014,11,05,06,20,2.50
2014,11,05,06,21,3.70
2014,11,05,06,22,3.40
2014,11,05,06,23,3.60
2014,11,05,06,24,3.00
2014,11,05,06,25,3.00
2014,11,05,06,26,3.60
2014,11,05,06,27,3.00
2014,11,05,06,28,2.90
2014,11,05,06,29,4.60
2014,11,05,06,30,4.40
2014,11,05,06,31,6.20
2014,11,05,06,32,3.40
2014,11,05,06,33,5.10
2014,11,05,06,34,6.00
2014,11,05,06,35,4.40
2014,11,05,06,36,4.70
2014,11,05,06,37,5.00
2014,11,05,06,38,5.30
2014,11,05,06,39,3.50
2014,11,05,06,40,3.40
2014,11,05,06,41,3.60
2014,11,05,06,42,3.60
2014,11,05,06,43,3.90
2014,11,05,06,44,3.90
2014,11,05,06,45,3.10
2014,11,05,06,46,3.70
2014,11,05,06,47,2.40
2014,11,05,06,48,4.10
2014,11,05,06,49,4.10
2014,11,05,06,50,4.20
2014,11,05,06,51,3.10
2014,11,05,06,52,2.40
2014,11,05,06,53,5.20
2014,11,05,06,54,3.40
2014,11,05,06,55,3.10
2014,11,05,06,56,4.80
2014,11,05,06,57,5.30
2014,11,05,06,58,3.70
2014,11,05,06,59,3.80
2014,11,05,07,00,4.40
2014,11,05,07,01,3.50
2014,11,05,07,02,5.80
2014,11,05,07,03,5.90
2014,11,05,07,04,3.80
2014,11,05,07,05,3.20
2014,11,05,07,06,3.20
2014,11,05,07,07,3.60
2014,11,05,07,08,5.00
2014,11,05,07,09,3.30
2014,11,05,07,10,2.10
2014,11,05,07,11,1.80
2014,11,05,07,12,3.00
2014,11,05,07,13,3.20
2014,11,05,07,14,2.20
2014,11,05,07,15,3.70
2014,11,05,07,16,4.00
2014,11,05,07,17,4.20
2014,11,05,07,18,5.90
2014,11,05,07,19,3.60
2014,11,05,07,20,2.80
2014,11,05,07,21,3.10
2014,11,05,07,22,3.40
2014,11,05,07,23,3.70
2014,11,05,07,24,3.50
2014,11,05,07,25,4.70
2014,11,05,07,26,6.80
2014,11,05,07,27,5.30
2014,11,05,07,28,3.70
2014,11,05,07,29,4.40
2014,11,05,07,30,3.80
2014,11,05,07,31,2.10
2014,11,05,07,32,3.00
2014,11,05,07,33,3.60
2014,11,05,07,34,4.50
2014,11,05,07,35,4.10
2014,11,05,07,36,3.90
2014,11,05,07,37,4.20
2014,11,05,07,38,4.10
2014,11,05,07,39,3.90
2014,11,05,07,40,4.80
2014,11,05,07,41,5.90
2014,11,05,07,42,5.10
2014,11,05,07,43,3.90
2014,11,05,07,44,3.80
2014,11,05,07,45,5.00
2014,11,05,07,46,3.70
2014,11,05,07,47,7.20
2014,11,05,07,48,4.80
2014,11,05,07,49,3.90
2014,11,05,07,50,3.90
2014,11,05,07,51,3.10
2014,11,05,07,52,2.80
2014,11,05,07,53,1.00
2014,11,05,07,54,2.60
2014,11,05,07,55,1.70
2014,11,05,07,56,4.50
2014,11,05,07,57,4.00
2014,11,05,07,58,3.80
2014,11,05,07,59,4.00
2014,11,05,08,00,5.10
2014,11,05,08,01,2.50
2014,11,05,08,02,4.10
2014,11,05,08,03,3.90
2014,11,05,08,04,5.00
2014,11,05,08,05,4.70
2014,11,05,08,06,3.40
2014,11,05,08,07,5.60
2014,11,05,08,08,5.90
2014,11,05,08,09,5.60
2014,11,05,08,10,4.10
2014,11,05,08,11,3.60
2014,11,05,08,12,4.20
2014,11,05,08,13,4.20
2014,11,05,08,14,2.90
2014,11,05,08,15,1.80
2014,11,05,08,16,2.50
2014,11,05,08,17,1.50
2014,11,05,08,18,4.40
2014,11,05,08,19,4.20
2014,11,05,08,20,6.20
2014,11,05,08,21,5.30
2014,11,05,08,22,3.30
2014,11,05,08,23,5.00
2014,11,05,08,24,5.30
2014,11,05,08,25,2.60
2014,11,05,08,26,3.00
2014,11,05,08,27,5.10
2014,11,05,08,28,4.40
2014,11,05,08,29,6.30
2014,11,05,08,30,5.90
2014,11,05,08,31,6.70
2014,11,05,08,32,5.60
2014,11,05,08,33,6.40
2014,11,05,08,34,4.50
2014,11,05,08,35,4.60
2014,11,05,08,36,7.40
2014,11,05,08,37,4.20
2014,11,05,08,38,2.20
2014,11,05,08,39,2.60
2014,11,05,08,40,4.60
2014,11,05,08,41,6.70
2014,11,05,08,42,4.30
2014,11,05,08,43,6.20
2014,11,05,08,44,7.90
2014,11,05,08,45,6.80
2014,11,05,08,46,6.70
2014,11,05,08,47,6.80
2014,11,05,08,48,6.00
2014,11,05,08,49,5.90
2014,11,05,08,50,5.00
2014,11,05,08,51,7.10
2014,11,05,08,52,5.30
2014,11,05,08,53,5.30
2014,11,05,08,54,6.70
2014,11,05,08,55,3.80
2014,11,05,08,56,5.70
2014,11,05,08,57,4.80
2014,11,05,08,58,4.50
2014,11,05,08,59,4.60
2014,11,05,09,00,8.00
2014,11,05,09,01,6.10
2014,11,05,09,02,4.40
2014,11,05,09,03,8.30
2014,11,05,09,04,6.70
2014,11,05,09,05,6.40
2014,11,05,09,06,7.10
2014,11,05,09,07,5.90
2014,11,05,09,08,4.20
2014,11,05,09,09,3.30
2014,11,05,09,10,3.80
2014,11,05,09,11,4.70
2014,11,05,09,12,7.80
2014,11,05,09,13,5.60
2014,11,05,09,14,6.40
2014,11,05,09,15,8.30
2014,11,05,09,16,8.40
2014,11,05,09,17,5.40
2014,11,05,09,18,5.90
2014,11,05,09,19,6.30
2014,11,05,09,20,3.50
2014,11,05,09,21,3.60
2014,11,05,09,22,5.10
2014,11,05,09,23,6.80
2014,11,05,09,24,6.70
2014,11,05,09,25,7.70
2014,11,05,09,26,10.20
2014,11,05,09,27,6.70
2014,11,05,09,28,6.90
2014,11,05,09,29,6.40
2014,11,05,09,30,7.10
2014,11,05,09,31,7.60
2014,11,05,09,32,5.90
2014,11,05,09,33,5.50
2014,11,05,09,34,5.00
2014,11,05,09,35,6.90
2014,11,05,09,36,6.50
2014,11,05,09,37,3.60
2014,11,05,09,38,5.00
2014,11,05,09,39,4.80
2014,11,05,09,40,3.60
2014,11,05,09,41,2.60
2014,11,05,09,42,3.20
2014,11,05,09,43,5.90
2014,11,05,09,44,5.30
2014,11,05,09,45,4.30
2014,11,05,09,46,5.00
2014,11,05,09,47,7.30
2014,11,05,09,48,5.40
2014,11,05,09,49,3.80
2014,11,05,09,50,4.00
2014,11,05,09,51,3.20
2014,11,05,09,52,5.20
2014,11,05,09,53,4.40
2014,11,05,09,54,5.00
2014,11,05,09,55,5.30
2014,11,05,09,56,4.00
2014,11,05,09,57,4.40
2014,11,05,09,58,4.60
2014,11,05,09,59,4.00
2014,11,05,10,00,8.70
2014,11,05,10,01,7.20
2014,11,05,10,02,5.30
2014,11,05,10,03,5.90
2014,11,05,10,04,6.10
2014,11,05,10,05,8.00
2014,11,05,10,06,5.70
2014,11,05,10,07,8.60
2014,11,05,10,08,9.80
2014,11,05,10,09,9.70
2014,11,05,10,10,5.90
2014,11,05,10,11,7.40
2014,11,05,10,12,5.90
2014,11,05,10,13,3.10
2014,11,05,10,14,5.90
2014,11,05,10,15,5.50
2014,11,05,10,16,4.80
2014,11,05,10,17,4.20
2014,11,05,10,18,5.90
2014,11,05,10,19,4.60
2014,11,05,10,20,6.50
2014,11,05,10,21,6.90
2014,11,05,10,22,6.10
2014,11,05,10,23,6.60
2014,11,05,10,24,8.10
2014,11,05,10,25,8.00
2014,11,05,10,26,5.30
2014,11,05,10,27,2.90
2014,11,05,10,28,5.50
2014,11,05,10,29,5.30
2014,11,05,10,30,7.80
2014,11,05,10,31,7.40
2014,11,05,10,32,3.90
2014,11,05,10,33,5.10
2014,11,05,10,34,4.40
2014,11,05,10,35,2.60
2014,11,05,10,36,5.20
2014,11,05,10,37,3.10
2014,11,05,10,38,3.20
2014,11,05,10,39,5.20
2014,11,05,10,40,4.20
2014,11,05,10,41,3.80
2014,11,05,10,42,2.80
2014,11,05,10,43,3.30
2014,11,05,10,44,4.10
2014,11,05,10,45,2.60
2014,11,05,10,46,2.30
2014,11,05,10,47,1.40
2014,11,05,10,48,4.40
2014,11,05,10,49,7.20
2014,11,05,10,50,9.20
2014,11,05,10,51,5.20
2014,11,05,10,52,5.60
2014,11,05,10,53,6.90
2014,11,05,10,54,7.90
2014,11,05,10,55,6.60
2014,11,05,10,56,4.90
2014,11,05,10,57,4.40
2014,11,05,10,58,5.80
2014,11,05,10,59,6.60
2014,11,05,11,00,8.30
2014,11,05,11,01,5.50
2014,11,05,11,02,4.70
2014,11,05,11,03,6.50
2014,11,05,11,04,8.00
2014,11,05,11,05,6.50
2014,11,05,11,06,4.80
2014,11,05,11,07,4.30
2014,11,05,11,08,4.30
2014,11,05,11,09,6.40
2014,11,05,11,10,7.30
2014,11,05,11,11,6.70
2014,11,05,11,12,7.10
2014,11,05,11,13,5.60
2014,11,05,11,14,6.40
2014,11,05,11,15,4.50
2014,11,05,11,16,4.00
2014,11,05,11,17,3.70
2014,11,05,11,18,6.70
2014,11,05,11,19,4.50
2014,11,05,11,20,6.80
2014,11,05,11,21,7.10
2014,11,05,11,22,8.10
2014,11,05,11,23,6.50
2014,11,05,11,24,5.70
2014,11,05,11,25,3.40
2014,11,05,11,26,4.10
2014,11,05,11,27,5.90
2014,11,05,11,28,9.50
2014,11,05,11,29,6.10
2014,11,05,11,30,4.10
2014,11,05,11,31,2.30
2014,11,05,11,32,1.50
2014,11,05,11,33,4.50
2014,11,05,11,34,4.00
2014,11,05,11,35,4.00
2014,11,05,11,36,6.10
2014,11,05,11,37,7.80
2014,11,05,11,38,8.30
2014,11,05,11,39,6.00
2014,11,05,11,40,6.60
2014,11,05,11,41,8.30
2014,11,05,11,42,6.30
2014,11,05,11,43,7.40
2014,11,05,11,44,4.40
2014,11,05,11,45,3.90
2014,11,05,11,46,4.80
2014,11,05,11,47,6.80
2014,11,05,11,48,7.50
2014,11,05,11,49,8.90
2014,11,05,11,50,7.30
2014,11,05,11,51,5.70
2014,11,05,11,52,5.90
2014,11,05,11,53,5.10
2014,11,05,11,54,5.20
2014,11,05,11,55,5.50
2014,11,05,11,56,7.10
2014,11,05,11,57,8.10
2014,11,05,11,58,6.60
2014,11,05,11,59,5.60
2014,11,05,12,00,6.40
2014,11,05,12,01,8.80
2014,11,05,12,02,11.00
2014,11,05,12,03,7.60
2014,11,05,12,04,6.40
2014,11,05,12,05,4.50
2014,11,05,12,06,4.20
2014,11,05,12,07,7.20
2014,11,05,12,08,8.30
2014,11,05,12,09,5.00
2014,11,05,12,10,8.60
2014,11,05,12,11,8.30
2014,11,05,12,12,7.50
2014,11,05,12,13,7.20
2014,11,05,12,14,6.60
2014,11,05,12,15,6.30
2014,11,05,12,16,6.70
2014,11,05,12,17,7.80
2014,11,05,12,18,9.70
2014,11,05,12,19,8.50
2014,11,05,12,20,6.90
2014,11,05,12,21,4.90
2014,11,05,12,22,3.60
2014,11,05,12,23,5.60
2014,11,05,12,24,10.00
2014,11,05,12,25,8.60
2014,11,05,12,26,9.00
2014,11,05,12,27,7.00
2014,11,05,12,28,8.80
2014,11,05,12,29,9.40
2014,11,05,12,30,7.50
2014,11,05,12,31,7.30
2014,11,05,12,32,8.00
2014,11,05,12,33,9.60
2014,11,05,12,34,8.40
2014,11,05,12,35,4.50
2014,11,05,12,36,4.90
2014,11,05,12,37,5.50
2014,11,05,12,38,6.10
2014,11,05,12,39,5.00
2014,11,05,12,40,6.70
2014,11,05,12,41,6.60
2014,11,05,12,42,6.40
2014,11,05,12,43,8.20
2014,11,05,12,44,9.10
2014,11,05,12,45,6.30
2014,11,05,12,46,6.40
2014,11,05,12,47,9.60
2014,11,05,12,48,8.20
2014,11,05,12,49,8.30
2014,11,05,12,50,9.40
2014,11,05,12,51,5.80
2014,11,05,12,52,8.10
2014,11,05,12,53,7.10
2014,11,05,12,54,7.00
2014,11,05,12,55,6.10
2014,11,05,12,56,6.50
2014,11,05,12,57,7.30
2014,11,05,12,58,6.40
2014,11,05,12,59,7.20
2014,11,05,13,00,9.10
2014,11,05,13,01,7.80
2014,11,05,13,02,8.70
2014,11,05,13,03,9.10
2014,11,05,13,04,10.40
2014,11,05,13,05,9.10
2014,11,05,13,06,8.10
2014,11,05,13,07,8.10
2014,11,05,13,08,7.60
2014,11,05,13,09,7.00
2014,11,05,13,10,4.60
2014,11,05,13,11,6.70
2014,11,05,13,12,5.80
2014,11,05,13,13,7.70
2014,11,05,13,14,6.10
2014,11,05,13,15,8.60
2014,11,05,13,16,7.00
2014,11,05,13,17,5.50
2014,11,05,13,18,6.60
2014,11,05,13,19,6.10
2014,11,05,13,20,6.50
2014,11,05,13,21,6.10
2014,11,05,13,22,7.10
2014,11,05,13,23,7.30
2014,11,05,13,24,8.50
2014,11,05,13,25,6.20
2014,11,05,13,26,6.00
2014,11,05,13,27,6.40
2014,11,05,13,28,6.70
2014,11,05,13,29,7.90
2014,11,05,13,30,8.10
2014,11,05,13,31,7.70
2014,11,05,13,32,8.00
2014,11,05,13,33,5.30
2014,11,05,13,34,5.20
2014,11,05,13,35,7.10
2014,11,05,13,36,8.70
2014,11,05,13,37,7.10
2014,11,05,13,38,10.00
2014,11,05,13,39,8.10
2014,11,05,13,40,7.80
2014,11,05,13,41,8.00
2014,11,05,13,42,8.00
2014,11,05,13,43,7.20
2014,11,05,13,44,7.00
2014,11,05,13,45,5.30
2014,11,05,13,46,4.10
2014,11,05,13,47,6.70
2014,11,05,13,48,8.50
2014,11,05,13,49,8.90
2014,11,05,13,50,9.50
2014,11,05,13,51,6.80
2014,11,05,13,52,7.10
2014,11,05,13,53,7.60
2014,11,05,13,54,8.40
2014,11,05,13,55,6.10
2014,11,05,13,56,6.90
2014,11,05,13,57,4.70
2014,11,05,13,58,5.90
2014,11,05,13,59,8.10
2014,11,05,14,00,9.20
2014,11,05,14,01,8.10
2014,11,05,14,02,5.70
2014,11,05,14,03,4.60
2014,11,05,14,04,3.90
2014,11,05,14,05,5.70
2014,11,05,14,06,5.20
2014,11,05,14,07,7.00
2014,11,05,14,08,6.10
2014,11,05,14,09,7.80
2014,11,05,14,10,6.60
2014,11,05,14,11,7.00
2014,11,05,14,12,8.00
2014,11,05,14,13,9.00
2014,11,05,14,14,7.30
2014,11,05,14,15,6.40
2014,11,05,14,16,8.90
2014,11,05,14,17,7.50
2014,11,05,14,18,6.70
2014,11,05,14,19,7.30
2014,11,05,14,20,7.50
2014,11,05,14,21,7.60
2014,11,05,14,22,6.10
2014,11,05,14,23,9.60
2014,11,05,14,24,9.20
2014,11,05,14,25,7.80
2014,11,05,14,26,7.10
2014,11,05,14,27,7.30
2014,11,05,14,28,8.50
2014,11,05,14,29,8.10
2014,11,05,14,30,6.10
2014,11,05,14,31,6.20
2014,11,05,14,32,5.80
2014,11,05,14,33,6.10
2014,11,05,14,34,7.60
2014,11,05,14,35,5.60
2014,11,05,14,36,6.70
2014,11,05,14,37,5.50
2014,11,05,14,38,8.30
2014,11,05,14,39,5.30
2014,11,05,14,40,5.50
2014,11,05,14,41,5.70
2014,11,05,14,42,6.40
2014,11,05,14,43,7.00
2014,11,05,14,44,6.50
2014,11,05,14,45,7.00
2014,11,05,14,46,6.70
2014,11,05,14,47,7.50
2014,11,05,14,48,7.20
2014,11,05,14,49,4.70
2014,11,05,14,50,6.40
2014,11,05,14,51,5.90
2014,11,05,14,52,5.90
2014,11,05,14,53,4.60
2014,11,05,14,54,5.50
2014,11,05,14,55,7.70
2014,11,05,14,56,6.70
2014,11,05,14,57,6.30
2014,11,05,14,58,8.20
2014,11,05,14,59,6.60
2014,11,05,15,00,8.10
2014,11,05,15,01,6.90
2014,11,05,15,02,8.30
2014,11,05,15,03,5.40
2014,11,05,15,04,7.30
2014,11,05,15,05,8.90
2014,11,05,15,06,9.30
2014,11,05,15,07,9.80
2014,11,05,15,08,8.10
2014,11,05,15,09,7.40
2014,11,05,15,10,9.30
2014,11,05,15,11,8.90
2014,11,05,15,12,11.60
2014,11,05,15,13,10.10
2014,11,05,15,14,6.70
2014,11,05,15,15,6.70
2014,11,05,15,16,5.60
2014,11,05,15,17,9.10
2014,11,05,15,18,7.90
2014,11,05,15,19,6.70
2014,11,05,15,20,5.00
2014,11,05,15,21,8.30
2014,11,05,15,22,10.80
2014,11,05,15,23,10.30
2014,11,05,15,24,7.40
2014,11,05,15,25,5.10
2014,11,05,15,26,7.50
2014,11,05,15,27,8.50
2014,11,05,15,28,9.90
2014,11,05,15,29,8.50
2014,11,05,15,30,8.60
2014,11,05,15,31,8.80
2014,11,05,15,32,6.70
2014,11,05,15,33,9.70
2014,11,05,15,34,9.20
2014,11,05,15,35,9.10
2014,11,05,15,36,6.60
2014,11,05,15,37,11.00
2014,11,05,15,38,10.20
2014,11,05,15,39,7.90
2014,11,05,15,40,7.20
2014,11,05,15,41,9.30
2014,11,05,15,42,7.40
2014,11,05,15,43,6.40
2014,11,05,15,44,7.40
2014,11,05,15,45,9.10
2014,11,05,15,46,8.40
2014,11,05,15,47,8.20
2014,11,05,15,48,7.10
2014,11,05,15,49,7.50
2014,11,05,15,50,8.50
2014,11,05,15,51,12.20
2014,11,05,15,52,10.80
2014,11,05,15,53,10.00
2014,11,05,15,54,9.50
2014,11,05,15,55,6.70
2014,11,05,15,56,11.00
2014,11,05,15,57,10.10
2014,11,05,15,58,9.80
2014,11,05,15,59,9.10
2014,11,05,16,00,7.80
2014,11,05,16,01,9.30
2014,11,05,16,02,8.10
2014,11,05,16,03,7.20
2014,11,05,16,04,7.70
2014,11,05,16,05,6.60
2014,11,05,16,06,7.80
2014,11,05,16,07,7.70
2014,11,05,16,08,7.70
2014,11,05,16,09,8.00
2014,11,05,16,10,6.70
2014,11,05,16,11,7.50
2014,11,05,16,12,7.50
2014,11,05,16,13,8.10
2014,11,05,16,14,9.20
2014,11,05,16,15,7.40
2014,11,05,16,16,6.40
2014,11,05,16,17,7.50
2014,11,05,16,18,6.80
2014,11,05,16,19,9.10
2014,11,05,16,20,10.00
2014,11,05,16,21,10.80
2014,11,05,16,22,7.60
2014,11,05,16,23,6.30
2014,11,05,16,24,7.00
2014,11,05,16,25,7.80
2014,11,05,16,26,8.20
2014,11,05,16,27,7.70
2014,11,05,16,28,7.80
2014,11,05,16,29,8.80
2014,11,05,16,30,7.90
2014,11,05,16,31,8.40
2014,11,05,16,32,7.60
2014,11,05,16,33,7.80
2014,11,05,16,34,7.30
2014,11,05,16,35,8.00
2014,11,05,16,36,9.50
2014,11,05,16,37,7.40
2014,11,05,16,38,9.10
2014,11,05,16,39,8.10
2014,11,05,16,40,8.30
2014,11,05,16,41,8.00
2014,11,05,16,42,7.40
2014,11,05,16,43,9.20
2014,11,05,16,44,10.50
2014,11,05,16,45,8.10
2014,11,05,16,46,8.90
2014,11,05,16,47,7.80
2014,11,05,16,48,8.40
2014,11,05,16,49,7.30
2014,11,05,16,50,8.10
2014,11,05,16,51,8.60
2014,11,05,16,52,7.40
2014,11,05,16,53,7.00
2014,11,05,16,54,8.20
2014,11,05,16,55,8.90
2014,11,05,16,56,8.10
2014,11,05,16,57,9.60
2014,11,05,16,58,8.80
2014,11,05,16,59,7.80
2014,11,05,17,00,9.10
2014,11,05,17,01,7.80
2014,11,05,17,02,6.10
2014,11,05,17,03,9.10
2014,11,05,17,04,8.10
2014,11,05,17,05,6.70
2014,11,05,17,06,6.90
2014,11,05,17,07,7.50
2014,11,05,17,08,6.70
2014,11,05,17,09,8.90
2014,11,05,17,10,8.80
2014,11,05,17,11,7.40
2014,11,05,17,12,8.40
2014,11,05,17,13,6.50
2014,11,05,17,14,7.20
2014,11,05,17,15,8.30
2014,11,05,17,16,9.00
2014,11,05,17,17,10.50
2014,11,05,17,18,7.00
2014,11,05,17,19,7.50
2014,11,05,17,20,8.40
2014,11,05,17,21,8.90
2014,11,05,17,22,7.70
2014,11,05,17,23,10.00
2014,11,05,17,24,7.40
2014,11,05,17,25,7.80
2014,11,05,17,26,6.50
2014,11,05,17,27,4.20
2014,11,05,17,28,5.50
2014,11,05,17,29,6.40
2014,11,05,17,30,7.30
2014,11,05,17,31,7.30
2014,11,05,17,32,6.10
2014,11,05,17,33,6.90
2014,11,05,17,34,5.70
2014,11,05,17,35,5.10
2014,11,05,17,36,4.80
2014,11,05,17,37,5.40
2014,11,05,17,38,4.90
2014,11,05,17,39,4.70
2014,11,05,17,40,5.20
2014,11,05,17,41,3.80
2014,11,05,17,42,6.40
2014,11,05,17,43,8.30
2014,11,05,17,44,8.40
2014,11,05,17,45,10.00
2014,11,05,17,46,6.00
2014,11,05,17,47,7.50
2014,11,05,17,48,7.80
2014,11,05,17,49,5.60
2014,11,05,17,50,5.70
2014,11,05,17,51,8.50
2014,11,05,17,52,7.60
2014,11,05,17,53,7.00
2014,11,05,17,54,7.00
2014,11,05,17,55,7.50
2014,11,05,17,56,5.60
2014,11,05,17,57,3.80
2014,11,05,17,58,3.50
2014,11,05,17,59,4.70
2014,11,05,18,00,6.40
2014,11,05,18,01,5.80
2014,11,05,18,02,5.20
2014,11,05,18,03,5.60
2014,11,05,18,04,6.10
2014,11,05,18,05,4.40